EW0923 Weather Reports


Display with metric or nautical units.
time (UTC)temp
F
wind
direction
speed
MPH
gust
MPH
rain 1hr
in
rain 24hr
in
rain mn
in
humidity
%
barometer
mb
20260509113528 57 17 3.0 13.0 0.00 0.00 0.00 77 1011.2
20260509113049 57 210 4.0 13.0 0.00 0.00 0.00 77 1011.2
20260509112525 57 249 2.0 6.0 0.00 0.00 0.00 77 1011.1
20260509112025 57 231 2.0 6.0 0.00 0.00 0.00 77 1011.1
20260509111544 57 5 3.0 8.0 0.00 0.00 0.00 77 1011.2
20260509111029 57 156 2.0 8.0 0.00 0.00 0.00 77 1011.3
20260509110528 57 167 3.0 7.0 0.00 0.00 0.00 76 1011.2
20260509110057 57 115 2.0 7.0 0.00 0.00 0.00 76 1011.2
20260509105529 57 207 1.0 7.0 0.00 0.00 0.00 76 1011.2
20260509105031 57 154 1.0 8.0 0.00 0.00 0.00 76 1011.2
20260509104553 57 216 2.0 9.0 0.00 0.00 0.00 76 1011.1
20260509104028 57 179 3.0 9.0 0.00 0.00 0.00 76 1011.0
20260509103529 57 217 2.0 10.0 0.00 0.00 0.00 76 1010.9
20260509103045 57 234 3.0 10.0 0.00 0.00 0.00 76 1010.9
20260509102530 56 234 2.0 8.0 0.00 0.00 0.00 76 1010.9
20260509102029 56 133 1.0 6.0 0.00 0.00 0.00 76 1010.9
20260509101544 56 219 2.0 6.0 0.00 0.00 0.00 76 1010.9
20260509101028 56 197 2.0 10.0 0.00 0.00 0.00 76 1011.0
20260509100526 56 150 2.0 10.0 0.00 0.00 0.00 76 1011.0
20260509100044 56 214 2.0 8.0 0.00 0.00 0.00 76 1010.9
20260509095528 56 220 1.0 7.0 0.00 0.00 0.00 76 1010.9
20260509095027 56 232 2.0 8.0 0.00 0.00 0.00 76 1010.8
20260509094540 56 246 2.0 8.0 0.00 0.00 0.00 75 1010.9
20260509094028 56 261 3.0 8.0 0.00 0.00 0.00 75 1010.9
20260509093525 56 275 1.0 8.0 0.00 0.00 0.00 75 1010.9
20260509093036 56 256 3.0 7.0 0.00 0.00 0.00 75 1010.9
20260509092532 55 180 1.0 8.0 0.00 0.00 0.00 75 1010.9
20260509092028 55 277 1.0 8.0 0.00 0.00 0.00 75 1010.9
20260509091544 55 195 3.0 8.0 0.00 0.00 0.00 75 1010.9
20260509091030 55 0 2.0 5.0 0.00 0.00 0.00 75 1010.9
20260509090529 55 222 2.0 9.0 0.00 0.00 0.00 75 1011.0
20260509090049 55 239 4.0 9.0 0.00 0.00 0.00 75 1011.0
20260509085528 55 0 1.0 6.0 0.00 0.00 0.00 75 1010.9
20260509085031 54 205 2.0 6.0 0.00 0.00 0.00 75 1010.9
20260509084542 54 178 1.0 6.0 0.00 0.00 0.00 75 1011.1
20260509084028 54 155 1.0 4.0 0.00 0.00 0.00 75 1011.0
20260509083529 54 111 1.0 6.0 0.00 0.00 0.00 75 1011.1
20260509083047 53 240 2.0 6.0 0.00 0.00 0.00 75 1011.2
20260509082529 53 200 1.0 5.0 0.00 0.00 0.00 75 1011.1
20260509082025 53 271 0.0 3.0 0.00 0.00 0.00 75 1011.3
20260509081546 53 219 1.0 3.0 0.00 0.00 0.00 75 1011.3
20260509081028 52 181 0.0 3.0 0.00 0.00 0.00 75 1011.3
20260509080525 52 196 0.0 3.0 0.00 0.00 0.00 75 1011.4
20260509080044 52 181 0.0 4.0 0.00 0.00 0.00 74 1011.3
20260509075526 52 204 1.0 4.0 0.00 0.00 0.00 74 1011.5
20260509075024 52 188 1.0 3.0 0.00 0.00 0.00 74 1011.5
20260509074549 52 190 0.0 1.0 0.00 0.00 0.00 73 1011.5
20260509074028 52 186 0.0 1.0 0.00 0.00 0.00 73 1011.5
20260509073525 52 0 0.0 1.0 0.00 0.00 0.00 72 1011.5
20260509073042 53 0 0.0 2.0 0.00 0.00 0.00 71 1011.5
20260509072537 53 158 0.0 2.0 0.00 0.00 0.00 71 1011.6
20260509072024 53 0 0.0 2.0 0.00 0.00 0.00 70 1011.6
20260509071538 53 0 0.0 2.0 0.00 0.00 0.00 70 1011.6
20260509071025 54 0 0.0 1.0 0.00 0.00 0.00 69 1011.6
20260509070525 54 0 0.0 2.0 0.00 0.00 0.00 68 1011.8
20260509070036 54 148 0.0 2.0 0.00 0.00 0.00 67 1011.7
20260509065525 54 157 0.0 2.0 0.00 0.00 0.00 67 1011.9
20260509065028 55 221 0.0 1.0 0.00 0.00 0.00 66 1011.8
20260509064544 55 215 0.0 1.0 0.00 0.00 0.00 66 1011.9
20260509064026 55 0 0.0 0.0 0.00 0.00 0.00 65 1011.9
20260509063524 55 0 0.0 2.0 0.00 0.00 0.00 65 1011.9
20260509063044 55 0 0.0 2.0 0.00 0.00 0.00 64 1012.1
20260509062527 55 135 0.0 2.0 0.00 0.00 0.00 63 1012.0
20260509062024 55 166 0.0 1.0 0.00 0.00 0.00 63 1012.1
20260509061542 55 224 0.0 1.0 0.00 0.00 0.00 62 1012.1
20260509061026 56 0 0.0 1.0 0.00 0.00 0.00 61 1012.2
20260509060527 56 194 0.0 1.0 0.00 0.00 0.00 61 1012.1
20260509060039 56 0 0.0 1.0 0.00 0.00 0.00 61 1012.2
20260509055527 56 251 0.0 2.0 0.00 0.00 0.00 60 1012.2
20260509055024 56 0 0.0 2.0 0.00 0.00 0.00 60 1012.2
20260509054542 56 0 0.0 1.0 0.00 0.00 0.00 60 1012.2
20260509054025 56 206 0.0 2.0 0.00 0.00 0.00 59 1012.3
20260509053528 56 168 0.0 3.0 0.00 0.00 0.00 59 1012.3
20260509053137 56 253 1.0 3.0 0.00 0.00 0.00 59 1012.3
20260509052524 56 153 1.0 3.0 0.00 0.00 0.00 59 1012.4
20260509052024 56 252 0.0 3.0 0.00 0.00 0.00 58 1012.6
20260509051550 56 241 0.0 3.0 0.00 0.00 0.00 58 1012.5
20260509051025 56 244 1.0 3.0 0.00 0.00 0.00 58 1012.5
20260509050525 56 0 0.0 1.0 0.00 0.00 0.00 58 1012.6
20260509050047 57 231 0.0 3.0 0.00 0.00 0.00 57 1012.6
20260509045525 57 219 0.0 3.0 0.00 0.00 0.00 57 1012.5
20260509045025 57 238 0.0 2.0 0.00 0.00 0.00 57 1012.6
20260509044539 57 229 0.0 2.0 0.00 0.00 0.00 56 1012.5
20260509044025 58 0 0.0 5.0 0.00 0.00 0.00 55 1012.5
20260509043524 58 244 1.0 5.0 0.00 0.00 0.00 55 1012.5
20260509043043 58 238 1.0 4.0 0.00 0.00 0.00 54 1012.5
20260509042529 58 211 2.0 4.0 0.00 0.00 0.00 53 1012.6
20260509042025 58 236 1.0 4.0 0.00 0.00 0.00 53 1012.5
20260509041544 59 209 1.0 5.0 0.00 0.00 0.00 53 1012.6
20260509041025 59 205 1.0 5.0 0.00 0.00 0.00 52 1012.5
20260509040526 59 259 0.0 6.0 0.00 0.00 0.00 52 1012.5
20260509040106 59 259 1.0 6.0 0.00 0.00 0.00 52 1012.5
20260509035526 59 257 0.0 4.0 0.00 0.00 0.00 51 1012.7
20260509035027 59 212 1.0 7.0 0.00 0.00 0.00 51 1012.6
20260509034547 59 238 2.0 7.0 0.00 0.00 0.00 51 1012.6
20260509034027 59 278 0.0 7.0 0.00 0.00 0.00 50 1012.4
20260509033525 59 265 2.0 7.0 0.00 0.00 0.00 49 1012.5
20260509033039 60 203 2.0 7.0 0.00 0.00 0.00 50 1012.5
20260509032525 60 224 1.0 7.0 0.00 0.00 0.00 49 1012.4
20260509032027 60 0 2.0 7.0 0.00 0.00 0.00 49 1012.3
20260509031547 60 276 2.0 7.0 0.00 0.00 0.00 49 1012.2
20260509031025 60 215 2.0 7.0 0.00 0.00 0.00 50 1012.2
20260509030525 60 215 2.0 7.0 0.00 0.00 0.00 49 1012.2
20260509030045 60 177 1.0 3.0 0.00 0.00 0.00 49 1012.2
20260509025526 60 179 1.0 3.0 0.00 0.00 0.00 49 1012.2
20260509025025 60 248 1.0 4.0 0.00 0.00 0.00 49 1012.2
20260509024545 61 253 1.0 4.0 0.00 0.00 0.00 48 1012.2
20260509024025 61 211 0.0 7.0 0.00 0.00 0.00 48 1012.1
20260509023524 61 250 1.0 7.0 0.00 0.00 0.00 48 1012.3
20260509023047 61 205 2.0 6.0 0.00 0.00 0.00 48 1012.3
20260509022527 61 242 2.0 6.0 0.00 0.00 0.00 47 1012.3
20260509022027 61 258 1.0 6.0 0.00 0.00 0.00 47 1012.3
20260509021539 62 276 1.0 7.0 0.00 0.00 0.00 47 1012.3
20260509021026 62 145 1.0 9.0 0.00 0.00 0.00 47 1012.2
20260509020526 62 230 3.0 9.0 0.00 0.00 0.00 47 1012.2
20260509020048 62 273 2.0 13.0 0.00 0.00 0.00 48 1012.2
20260509015526 62 228 2.0 13.0 0.00 0.00 0.00 48 1012.1
20260509015025 61 286 1.0 5.0 0.00 0.00 0.00 49 1012.2
20260509014544 61 208 2.0 9.0 0.00 0.00 0.00 50 1012.1
20260509014024 61 234 1.0 9.0 0.00 0.00 0.00 51 1012.1
20260509013530 61 202 1.0 6.0 0.00 0.00 0.00 52 1012.1
20260509013102 61 261 1.0 6.0 0.00 0.00 0.00 52 1012.0
20260509012524 61 265 1.0 4.0 0.00 0.00 0.00 53 1011.9
20260509012026 61 271 0.0 4.0 0.00 0.00 0.00 54 1011.9
20260509011541 61 244 1.0 3.0 0.00 0.00 0.00 54 1011.8
20260509011025 61 244 0.0 2.0 0.00 0.00 0.00 54 1011.7
20260509010524 61 254 0.0 3.0 0.00 0.00 0.00 54 1011.8
20260509010036 61 142 1.0 5.0 0.00 0.00 0.00 54 1011.5
20260509005526 61 0 0.0 5.0 0.00 0.00 0.00 54 1011.4
20260509005025 61 161 1.0 5.0 0.00 0.00 0.00 53 1011.4
20260509004545 61 125 1.0 5.0 0.00 0.00 0.00 53 1011.2
20260509004025 61 261 2.0 5.0 0.00 0.00 0.00 52 1011.3
20260509003525 61 256 2.0 5.0 0.00 0.00 0.00 52 1011.2
20260509003106 62 188 1.0 5.0 0.00 0.00 0.00 51 1011.1
20260509002525 62 0 0.0 4.0 0.00 0.00 0.00 50 1010.9
20260509002025 62 252 1.0 6.0 0.00 0.00 0.00 49 1010.9
20260509001545 63 103 2.0 7.0 0.00 0.00 0.00 48 1010.9
20260509001026 63 167 3.0 7.0 0.00 0.00 0.00 47 1010.8
20260509000529 64 271 2.0 7.0 0.00 0.00 0.00 44 1010.8
20260509000049 65 232 1.0 6.0 0.00 0.00 0.00 39 1010.8
20260508235525 65 258 1.0 2.0 0.00 0.00 0.00 38 1010.7
20260508235025 65 261 0.0 6.0 0.00 0.00 0.00 38 1010.6
20260508234546 65 252 2.0 6.0 0.00 0.00 0.00 37 1010.6
20260508234025 65 283 1.0 6.0 0.00 0.00 0.00 37 1010.5
20260508233525 65 211 0.0 7.0 0.00 0.00 0.00 37 1010.5
20260508233044 66 254 2.0 7.0 0.00 0.00 0.00 37 1010.4
20260508232524 66 274 2.0 7.0 0.00 0.00 0.00 37 1010.4
20260508232028 66 250 1.0 7.0 0.00 0.00 0.00 37 1010.3
20260508231548 66 254 1.0 7.0 0.00 0.00 0.00 36 1010.3
20260508231024 66 267 1.0 10.0 0.00 0.00 0.00 35 1010.2
20260508230524 66 278 2.0 10.0 0.00 0.00 0.00 35 1010.3
20260508230046 66 259 1.0 4.0 0.00 0.00 0.00 35 1010.2
20260508225528 66 277 1.0 7.0 0.00 0.00 0.00 35 1010.1
20260508225027 66 277 1.0 7.0 0.00 0.00 0.00 34 1010.1
20260508224545 66 0 0.0 4.0 0.00 0.00 0.00 34 1010.1
20260508224024 66 260 1.0 4.0 0.00 0.00 0.00 34 1010.1
20260508223528 66 281 1.0 3.0 0.00 0.00 0.00 34 1010.0
20260508223039 66 300 0.0 5.0 0.00 0.00 0.00 33 1010.0
20260508222528 66 123 1.0 5.0 0.00 0.00 0.00 34 1009.9
20260508222027 66 311 1.0 5.0 0.00 0.00 0.00 33 1010.0
20260508221545 66 299 1.0 7.0 0.00 0.00 0.00 33 1010.1
20260508221029 67 297 1.0 7.0 0.00 0.00 0.00 33 1010.0
20260508220529 67 298 1.0 4.0 0.00 0.00 0.00 32 1010.0
20260508220044 67 294 1.0 14.0 0.00 0.00 0.00 32 1010.0
20260508215530 67 283 2.0 14.0 0.00 0.00 0.00 31 1010.0
20260508215031 67 294 4.0 14.0 0.00 0.00 0.00 31 1010.0
20260508214542 68 288 2.0 9.0 0.00 0.00 0.00 32 1010.0
20260508214028 67 290 3.0 9.0 0.00 0.00 0.00 32 1010.0
20260508213529 67 279 3.0 10.0 0.00 0.00 0.00 31 1009.9
20260508213039 67 291 3.0 10.0 0.00 0.00 0.00 31 1009.9
20260508212528 68 309 2.0 10.0 0.00 0.00 0.00 30 1010.0
20260508212028 68 302 2.0 10.0 0.00 0.00 0.00 32 1010.0
20260508211545 68 319 3.0 10.0 0.00 0.00 0.00 30 1010.0
20260508211029 68 276 3.0 9.0 0.00 0.00 0.00 31 1010.1
20260508210528 67 251 3.0 12.0 0.00 0.00 0.00 31 1010.1
20260508210047 67 301 3.0 13.0 0.00 0.00 0.00 32 1010.2
20260508205528 67 269 4.0 16.0 0.00 0.00 0.00 31 1010.2
20260508205028 67 321 6.0 16.0 0.00 0.00 0.00 32 1010.2
20260508204545 67 287 4.0 10.0 0.00 0.00 0.00 31 1010.2
20260508204028 67 335 2.0 15.0 0.00 0.00 0.00 31 1010.3
20260508203528 68 287 3.0 15.0 0.00 0.00 0.00 31 1010.3
20260508203050 68 296 6.0 23.0 0.00 0.00 0.00 31 1010.6
20260508202528 67 304 7.0 23.0 0.00 0.00 0.00 30 1010.4
20260508202028 68 284 4.0 12.0 0.00 0.00 0.00 31 1010.4
20260508201537 68 310 2.0 12.0 0.00 0.00 0.00 31 1010.4
20260508201029 67 296 4.0 12.0 0.00 0.00 0.00 32 1010.5
20260508200528 67 314 2.0 14.0 0.00 0.00 0.00 33 1010.7
20260508200056 66 302 3.0 14.0 0.00 0.00 0.00 32 1010.6
20260508195527 66 289 5.0 14.0 0.00 0.00 0.00 31 1010.6
20260508195027 67 281 5.0 13.0 0.00 0.00 0.00 31 1010.7
20260508194544 67 294 6.0 12.0 0.00 0.00 0.00 30 1010.6
20260508194028 67 236 3.0 9.0 0.00 0.00 0.00 32 1010.7
20260508193528 67 290 2.0 13.0 0.00 0.00 0.00 34 1010.7
20260508193054 67 347 3.0 13.0 0.00 0.00 0.00 34 1010.7
20260508192528 67 275 2.0 13.0 0.00 0.00 0.00 35 1010.7
20260508192032 67 303 3.0 13.0 0.00 0.00 0.00 34 1010.8
20260508191543 67 271 4.0 13.0 0.00 0.00 0.00 33 1010.8
20260508191028 66 296 4.0 13.0 0.00 0.00 0.00 35 1010.6
20260508190528 66 276 5.0 13.0 0.00 0.00 0.00 34 1010.7
20260508190046 66 296 3.0 13.0 0.00 0.00 0.00 34 1010.8
20260508185529 66 275 4.0 12.0 0.00 0.00 0.00 33 1010.9
20260508185029 66 304 3.0 8.0 0.00 0.00 0.00 33 1011.0
20260508184558 66 268 3.0 12.0 0.00 0.00 0.00 35 1011.1
20260508184027 65 280 3.0 12.0 0.00 0.00 0.00 35 1011.1
20260508183528 66 281 3.0 12.0 0.00 0.00 0.00 34 1011.1
20260508183058 66 230 3.0 15.0 0.00 0.00 0.00 34 1011.2
20260508182530 65 130 6.0 15.0 0.00 0.00 0.00 35 1011.2
20260508182028 65 319 3.0 14.0 0.00 0.00 0.00 35 1011.4
20260508181544 64 259 3.0 17.0 0.00 0.00 0.00 34 1011.5
20260508181028 64 281 4.0 17.0 0.00 0.00 0.00 34 1011.5
20260508180527 64 275 3.0 11.0 0.00 0.00 0.00 35 1011.5
20260508180043 64 244 2.0 11.0 0.00 0.00 0.00 35 1011.7
20260508175528 65 275 3.0 12.0 0.00 0.00 0.00 33 1011.8
20260508175031 65 255 4.0 16.0 0.00 0.00 0.00 34 1011.8
20260508174555 64 213 4.0 16.0 0.00 0.00 0.00 34 1011.7
20260508174031 64 285 3.0 16.0 0.00 0.00 0.00 34 1011.8
20260508173528 65 263 4.0 17.0 0.00 0.00 0.00 33 1011.9
20260508173035 65 260 4.0 17.0 0.00 0.00 0.00 33 1011.8
20260508172528 64 280 4.0 17.0 0.00 0.00 0.00 33 1011.7
20260508172028 64 292 5.0 16.0 0.00 0.00 0.00 33 1011.9
20260508171546 65 277 4.0 16.0 0.00 0.00 0.00 34 1012.0
20260508171029 65 281 2.0 10.0 0.00 0.00 0.00 34 1012.0
20260508170528 65 255 4.0 12.0 0.00 0.00 0.00 32 1011.8
20260508170045 64 326 2.0 12.0 0.00 0.00 0.00 35 1012.0
20260508165529 64 266 2.0 16.0 0.00 0.00 0.00 35 1012.1
20260508165028 64 263 4.0 16.0 0.00 0.00 0.00 35 1012.1
20260508164548 63 306 3.0 12.0 0.00 0.00 0.00 36 1012.3
20260508164028 63 277 4.0 11.0 0.00 0.00 0.00 36 1012.4
20260508163528 63 269 1.0 12.0 0.00 0.00 0.00 37 1012.3
20260508163106 63 206 4.0 12.0 0.00 0.00 0.00 35 1012.5
20260508162527 63 277 2.0 11.0 0.00 0.00 0.00 36 1012.6
20260508162025 62 300 5.0 15.0 0.00 0.00 0.00 36 1012.7
20260508161537 62 333 6.0 15.0 0.00 0.00 0.00 36 1012.8
20260508161027 62 285 3.0 11.0 0.00 0.00 0.00 36 1012.9
20260508160526 62 274 2.0 7.0 0.00 0.00 0.00 37 1013.0
20260508160043 62 57 2.0 15.0 0.00 0.00 0.00 35 1012.9
20260508155526 61 286 7.0 15.0 0.00 0.00 0.00 36 1013.1
20260508155026 62 279 4.0 13.0 0.00 0.00 0.00 37 1013.1
20260508154551 61 273 4.0 13.0 0.00 0.00 0.00 36 1013.2
20260508154026 61 319 3.0 16.0 0.00 0.00 0.00 36 1013.3
20260508153526 62 288 4.0 16.0 0.00 0.00 0.00 36 1013.2
20260508153044 62 303 5.0 11.0 0.00 0.00 0.00 36 1013.1
20260508152524 62 273 3.0 9.0 0.00 0.00 0.00 37 1013.2
20260508152026 62 232 1.0 8.0 0.00 0.00 0.00 38 1013.2
20260508151540 61 146 3.0 8.0 0.00 0.00 0.00 38 1013.3
20260508151033 61 290 2.0 10.0 0.00 0.00 0.00 38 1013.3
20260508150525 61 263 4.0 10.0 0.00 0.00 0.00 37 1013.2
20260508150037 61 230 2.0 10.0 0.00 0.00 0.00 37 1013.3
20260508145523 60 277 2.0 10.0 0.00 0.00 0.00 38 1013.4
20260508145025 60 227 4.0 8.0 0.00 0.00 0.00 37 1013.5
20260508144544 60 229 2.0 10.0 0.00 0.00 0.00 41 1013.5
20260508144025 60 277 4.0 11.0 0.00 0.00 0.00 38 1013.6
20260508143526 60 277 3.0 11.0 0.00 0.00 0.00 39 1013.6
20260508143045 59 270 2.0 7.0 0.00 0.00 0.00 42 1013.6
20260508142527 59 306 2.0 5.0 0.00 0.00 0.00 39 1013.6
20260508142026 59 326 2.0 4.0 0.00 0.00 0.00 40 1013.6
20260508141541 59 253 1.0 7.0 0.00 0.00 0.00 42 1013.6
20260508141027 58 288 2.0 8.0 0.00 0.00 0.00 43 1013.6
20260508140524 58 275 1.0 9.0 0.00 0.00 0.00 45 1013.6
20260508140037 58 182 3.0 9.0 0.00 0.00 0.00 45 1013.6
20260508135530 58 257 2.0 5.0 0.00 0.00 0.00 41 1013.7
20260508135026 58 283 2.0 5.0 0.00 0.00 0.00 42 1013.7
20260508134546 59 275 1.0 4.0 0.00 0.00 0.00 42 1013.7
20260508134023 58 265 1.0 4.0 0.00 0.00 0.00 46 1013.7
20260508133527 58 320 1.0 4.0 0.00 0.00 0.00 44 1013.9
20260508133048 58 329 1.0 4.0 0.00 0.00 0.00 43 1013.9
20260508132524 57 339 1.0 3.0 0.00 0.00 0.00 43 1013.8
20260508132029 57 281 1.0 3.0 0.00 0.00 0.00 44 1013.9
20260508131551 57 271 1.0 4.0 0.00 0.00 0.00 46 1014.0
20260508131029 56 311 1.0 4.0 0.00 0.00 0.00 48 1014.0
20260508130532 56 283 1.0 4.0 0.00 0.00 0.00 48 1013.9
20260508130052 56 294 1.0 4.0 0.00 0.00 0.00 49 1013.9
20260508125529 55 59 1.0 4.0 0.00 0.00 0.00 51 1013.8
20260508125029 55 311 1.0 5.0 0.00 0.00 0.00 52 1013.8
20260508124543 55 306 2.0 5.0 0.00 0.00 0.00 52 1013.8
20260508124032 55 311 1.0 3.0 0.00 0.00 0.00 56 1013.9
20260508123525 55 307 1.0 5.0 0.00 0.00 0.00 57 1013.8
20260508123044 55 340 1.0 5.0 0.00 0.00 0.00 57 1013.8
20260508122528 54 322 1.0 4.0 0.00 0.00 0.00 57 1013.8
20260508122029 54 292 1.0 4.0 0.00 0.00 0.00 60 1013.8
20260508121546 54 315 0.0 2.0 0.00 0.00 0.00 61 1013.8
20260508121030 54 321 1.0 3.0 0.00 0.00 0.00 60 1013.8
20260508120528 53 288 1.0 3.0 0.00 0.00 0.00 63 1013.7
20260508120045 53 257 1.0 2.0 0.00 0.00 0.00 64 1013.6
20260508115531 53 277 0.0 2.0 0.00 0.00 0.00 65 1013.6
20260508115025 53 324 0.0 2.0 0.00 0.00 0.00 66 1013.6
20260508114543 52 286 1.0 2.0 0.00 0.00 0.00 66 1013.6
20260508114028 52 264 0.0 3.0 0.00 0.00 0.00 68 1013.6